PAL316 RPLL-RPMR

Flight info

Callsign PAL316
Flight time 1h 36m
Altitude 34000
Route VERDE2R VERDE A461 SAJ W3 IOO B472 COT W19 MELBY MELBY3R
Aircraft B77W/H-SDE1E2E3FGHIJ2J3J4J5M1RWXY/LB1D1

Departure

Time 2026-04-23 23:18
Airport Ninoy Aquino International Airport (RPLL)

Arrival

Time 2026-04-24 00:54
Airport General Santos International Airport (RPMR)
Time Latitude Longitude Altitude Speed Heading
2026-04-23 22:41 14.50452 121.00652 73 ft 0 kts
2026-04-23 23:05 14.50440 121.00651 73 ft 4 kts 359°
2026-04-23 23:05 14.50413 121.00651 66 ft 4 kts 358°
2026-04-23 23:05 14.50386 121.00651 63 ft 4 kts 21°
2026-04-23 23:06 14.50375 121.00643 63 ft 1 kts 60°
2026-04-23 23:06 14.50388 121.00665 66 ft 4 kts 59°
2026-04-23 23:06 14.50398 121.00684 65 ft 2 kts 60°
2026-04-23 23:06 14.50408 121.00701 68 ft 0 kts 240°
2026-04-23 23:13 14.50404 121.00694 65 ft 8 kts 240°
2026-04-23 23:13 14.50346 121.00588 65 ft 19 kts 240°
2026-04-23 23:13 14.50282 121.00473 65 ft 17 kts 240°
2026-04-23 23:14 14.50224 121.00370 65 ft 17 kts 240°
2026-04-23 23:14 14.50122 121.00324 65 ft 17 kts 216°
2026-04-23 23:14 14.50059 121.00222 65 ft 17 kts 240°
2026-04-23 23:14 14.50000 121.00118 65 ft 17 kts 241°
2026-04-23 23:15 14.49943 121.00012 63 ft 17 kts 240°
2026-04-23 23:15 14.49891 120.99972 71 ft 0 kts 175°
2026-04-23 23:16 14.49890 120.99972 71 ft 2 kts 175°
2026-04-23 23:16 14.49816 121.00013 63 ft 17 kts 120°
2026-04-23 23:16 14.49850 121.00124 66 ft 17 kts 59°
2026-04-23 23:16 14.49868 121.00157 65 ft 0 kts 61°
2026-04-23 23:17 14.49870 121.00159 65 ft 1 kts 60°
2026-04-23 23:17 14.49887 121.00190 65 ft 17 kts 60°
2026-04-23 23:17 14.50105 121.00588 63 ft 127 kts 60°
2026-04-23 23:17 14.50727 121.01715 552 ft 213 kts 62°
2026-04-23 23:18 14.51478 121.03072 2419 ft 219 kts 60°
2026-04-23 23:18 14.52247 121.04456 4541 ft 225 kts 61°
2026-04-23 23:18 14.53041 121.05886 6443 ft 233 kts 61°
2026-04-23 23:18 14.53866 121.07369 8090 ft 245 kts 61°
2026-04-23 23:19 14.54732 121.08928 9694 ft 256 kts 61°
2026-04-23 23:19 14.55629 121.10541 11173 ft 262 kts 60°
2026-04-23 23:19 14.56530 121.12195 12674 ft 265 kts 66°
2026-04-23 23:19 14.56859 121.14059 13959 ft 272 kts 98°
2026-04-23 23:20 14.56129 121.15860 15020 ft 283 kts 131°
2026-04-23 23:20 14.54559 121.17101 16085 ft 289 kts 150°
2026-04-23 23:20 14.52854 121.18266 17157 ft 299 kts 143°
2026-04-23 23:20 14.51252 121.19672 18294 ft 306 kts 138°
2026-04-23 23:21 14.49700 121.21211 19261 ft 312 kts 136°
2026-04-23 23:21 14.48084 121.22684 20073 ft 313 kts 151°
2026-04-23 23:21 14.46034 121.23427 20753 ft 315 kts 178°
2026-04-23 23:21 14.43876 121.23176 21541 ft 314 kts 202°
2026-04-23 23:22 14.41985 121.22067 22382 ft 314 kts 223°
2026-04-23 23:22 14.40463 121.20448 23192 ft 316 kts 229°
2026-04-23 23:22 14.39012 121.18761 23908 ft 322 kts 229°
2026-04-23 23:22 14.37525 121.17012 24561 ft 327 kts 229°
2026-04-23 23:23 14.36009 121.15239 25290 ft 330 kts 229°
2026-04-23 23:23 14.34478 121.13463 26049 ft 333 kts 229°
2026-04-23 23:23 14.32926 121.11675 26789 ft 336 kts 228°
2026-04-23 23:23 14.31356 121.09877 27500 ft 340 kts 228°
2026-04-23 23:24 14.29761 121.08054 28203 ft 344 kts 228°
2026-04-23 23:24 14.28160 121.06249 28901 ft 348 kts 225°
2026-04-23 23:24 14.26296 121.04646 29582 ft 352 kts 216°
2026-04-23 23:24 14.24240 121.03208 30062 ft 364 kts 214°
2026-04-23 23:25 14.22064 121.01759 30237 ft 381 kts 214°
2026-04-23 23:25 14.19790 121.00232 30370 ft 399 kts 214°
2026-04-23 23:25 14.17427 120.98613 30510 ft 416 kts 214°
2026-04-23 23:25 14.14982 120.96908 30622 ft 433 kts 215°
2026-04-23 23:26 14.12453 120.95127 30740 ft 448 kts 215°
2026-04-23 23:26 14.09874 120.93306 30912 ft 461 kts 215°
2026-04-23 23:26 14.07173 120.91498 31126 ft 468 kts 208°
2026-04-23 23:26 14.04074 120.90393 31407 ft 477 kts 191°
2026-04-23 23:27 14.00749 120.90213 31916 ft 480 kts 175°
2026-04-23 23:27 13.97498 120.90894 32476 ft 479 kts 166°
2026-04-23 23:27 13.94344 120.91770 33024 ft 479 kts 166°
2026-04-23 23:27 13.91136 120.92662 33655 ft 477 kts 166°
2026-04-23 23:28 13.87922 120.93537 34005 ft 478 kts 166°
2026-04-23 23:28 13.82634 120.94933 33965 ft 475 kts 167°
2026-04-23 23:29 13.76256 120.96572 33986 ft 477 kts 167°
2026-04-23 23:29 13.69799 120.98224 33986 ft 480 kts 167°
2026-04-23 23:30 13.63360 120.99876 33913 ft 472 kts 167°
2026-04-23 23:30 13.57024 121.01502 33895 ft 469 kts 167°
2026-04-23 23:31 13.50633 121.03121 33935 ft 476 kts 169°
2026-04-23 23:31 13.47395 121.03512 33977 ft 477 kts 180°
2026-04-23 23:31 13.44072 121.03499 33997 ft 477 kts 183°
2026-04-23 23:32 13.37416 121.03339 33983 ft 480 kts 182°
2026-04-23 23:32 13.30739 121.03344 33985 ft 479 kts 181°
2026-04-23 23:33 13.24135 121.03409 33978 ft 476 kts 181°
2026-04-23 23:33 13.17532 121.03476 34007 ft 474 kts 181°
2026-04-23 23:34 13.10936 121.03544 33976 ft 474 kts 181°
2026-04-23 23:34 13.04347 121.03611 33985 ft 473 kts 181°
2026-04-23 23:35 12.97766 121.03677 33995 ft 473 kts 181°
2026-04-23 23:35 12.91216 121.03744 34002 ft 474 kts 181°
2026-04-23 23:36 12.84614 121.03811 33969 ft 475 kts 181°
2026-04-23 23:36 12.78004 121.03877 33987 ft 475 kts 181°
2026-04-23 23:37 12.71387 121.03943 33965 ft 475 kts 181°
2026-04-23 23:37 12.64770 121.04010 33987 ft 475 kts 181°
2026-04-23 23:38 12.58205 121.04077 33974 ft 475 kts 181°
2026-04-23 23:38 12.51593 121.04143 33978 ft 475 kts 181°
2026-04-23 23:39 12.44977 121.04210 33969 ft 475 kts 181°
2026-04-23 23:39 12.38381 121.04577 33961 ft 477 kts 168°
2026-04-23 23:39 12.35282 121.05693 33968 ft 481 kts 155°
2026-04-23 23:40 12.32433 121.07503 33959 ft 486 kts 142°
2026-04-23 23:40 12.27523 121.12245 33970 ft 487 kts 137°
2026-04-23 23:41 12.22631 121.17068 33960 ft 489 kts 138°
2026-04-23 23:41 12.17681 121.21857 33959 ft 491 kts 138°
2026-04-23 23:42 12.12725 121.26603 33962 ft 492 kts 138°
2026-04-23 23:42 12.07729 121.31376 33957 ft 491 kts 138°
2026-04-23 23:43 12.02745 121.36140 33950 ft 490 kts 138°
2026-04-23 23:43 11.97770 121.40894 33953 ft 489 kts 138°
2026-04-23 23:44 11.92834 121.45610 33954 ft 489 kts 138°
2026-04-23 23:44 11.87871 121.50348 33958 ft 488 kts 138°
2026-04-23 23:45 11.82916 121.55077 33954 ft 487 kts 138°
2026-04-23 23:45 11.77970 121.59795 33952 ft 487 kts 138°
2026-04-23 23:46 11.73046 121.64488 33957 ft 487 kts 138°
2026-04-23 23:46 11.68097 121.69205 33954 ft 487 kts 138°
2026-04-23 23:47 11.63145 121.73916 33947 ft 487 kts 138°
2026-04-23 23:47 11.58181 121.78622 33955 ft 487 kts 138°
2026-04-23 23:48 11.53214 121.83329 33956 ft 487 kts 138°
2026-04-23 23:48 11.48286 121.88000 33961 ft 487 kts 138°
2026-04-23 23:49 11.40851 121.95043 33958 ft 486 kts 138°
2026-04-23 23:49 11.35901 121.99729 33970 ft 486 kts 138°
2026-04-23 23:50 11.30955 122.04410 33970 ft 485 kts 138°
2026-04-23 23:50 11.26039 122.09059 33969 ft 485 kts 138°
2026-04-23 23:51 11.21094 122.13734 33978 ft 485 kts 138°
2026-04-23 23:51 11.16145 122.18411 33985 ft 485 kts 138°
2026-04-23 23:52 11.11197 122.23085 33984 ft 485 kts 138°
2026-04-23 23:52 11.06285 122.27724 33978 ft 485 kts 138°
2026-04-23 23:53 11.01337 122.32389 33984 ft 484 kts 138°
2026-04-23 23:53 10.96400 122.37044 33979 ft 483 kts 138°
2026-04-23 23:54 10.91468 122.41692 33981 ft 483 kts 138°
2026-04-23 23:54 10.86570 122.46295 33978 ft 483 kts 139°
2026-04-23 23:55 10.81135 122.50266 33974 ft 481 kts 151°
2026-04-23 23:55 10.75129 122.53244 33957 ft 480 kts 156°
2026-04-23 23:56 10.69053 122.56054 33962 ft 479 kts 156°
2026-04-23 23:56 10.62995 122.58888 33966 ft 479 kts 156°
2026-04-23 23:57 10.56991 122.61724 33963 ft 479 kts 156°
2026-04-23 23:57 10.50950 122.64580 33961 ft 479 kts 156°
2026-04-23 23:58 10.44916 122.67430 33957 ft 478 kts 156°
2026-04-23 23:58 10.38895 122.70270 33952 ft 477 kts 156°
2026-04-23 23:59 10.32892 122.73119 33958 ft 476 kts 156°
2026-04-23 23:59 10.26946 122.75957 33958 ft 475 kts 156°
2026-04-24 00:00 10.20958 122.78810 33961 ft 475 kts 156°
2026-04-24 00:00 10.14976 122.81652 33966 ft 475 kts 156°
2026-04-24 00:01 10.08981 122.84469 33958 ft 475 kts 156°
2026-04-24 00:01 10.02990 122.87279 33961 ft 474 kts 156°
2026-04-24 00:02 9.97043 122.90074 33960 ft 474 kts 156°
2026-04-24 00:02 9.91058 122.92886 33965 ft 474 kts 156°
2026-04-24 00:03 9.85071 122.95696 33962 ft 474 kts 157°
2026-04-24 00:03 9.79094 122.98495 33960 ft 473 kts 156°
2026-04-24 00:04 9.73121 123.01304 33960 ft 473 kts 156°
2026-04-24 00:04 9.67196 123.04090 33964 ft 473 kts 156°
2026-04-24 00:05 9.61216 123.06895 33958 ft 473 kts 156°
2026-04-24 00:05 9.55239 123.09699 33954 ft 473 kts 156°
2026-04-24 00:06 9.49265 123.12504 33967 ft 473 kts 156°
2026-04-24 00:06 9.43337 123.15280 33961 ft 472 kts 156°
2026-04-24 00:07 9.37387 123.18066 33962 ft 471 kts 156°
2026-04-24 00:07 9.31432 123.20860 33971 ft 472 kts 156°
2026-04-24 00:08 9.25469 123.23653 33964 ft 473 kts 156°
2026-04-24 00:08 9.19539 123.26429 33968 ft 473 kts 156°
2026-04-24 00:09 9.13577 123.29220 33955 ft 471 kts 155°
2026-04-24 00:09 9.07637 123.32000 33953 ft 469 kts 155°
2026-04-24 00:10 9.01719 123.34770 33955 ft 467 kts 155°
2026-04-24 00:10 8.95820 123.37531 33959 ft 467 kts 155°
2026-04-24 00:11 8.89919 123.40293 33960 ft 468 kts 155°
2026-04-24 00:11 8.84035 123.43045 33973 ft 469 kts 155°
2026-04-24 00:12 8.78105 123.45818 33963 ft 470 kts 155°
2026-04-24 00:12 8.72177 123.48589 33958 ft 469 kts 155°
2026-04-24 00:13 8.66265 123.51351 33966 ft 468 kts 155°
2026-04-24 00:13 8.60396 123.54094 33958 ft 468 kts 155°
2026-04-24 00:14 8.54484 123.56854 33974 ft 469 kts 155°
2026-04-24 00:14 8.48554 123.59622 33974 ft 470 kts 155°
2026-04-24 00:15 8.42608 123.62397 33983 ft 471 kts 155°
2026-04-24 00:15 8.36652 123.65175 33981 ft 472 kts 155°
2026-04-24 00:16 8.30735 123.67934 33980 ft 470 kts 155°
2026-04-24 00:16 8.24913 123.70650 33860 ft 451 kts 154°
2026-04-24 00:17 8.19331 123.73251 33714 ft 433 kts 154°
2026-04-24 00:17 8.13965 123.75748 33591 ft 416 kts 154°
2026-04-24 00:18 8.08847 123.78131 33473 ft 401 kts 154°
2026-04-24 00:18 8.03880 123.80445 33344 ft 386 kts 154°
2026-04-24 00:19 7.99081 123.82679 33050 ft 376 kts 154°
2026-04-24 00:19 7.96701 123.83787 32805 ft 375 kts 154°
2026-04-24 00:19 7.94339 123.84887 32539 ft 374 kts 154°
2026-04-24 00:20 7.91977 123.85986 32279 ft 373 kts 154°
2026-04-24 00:20 7.89629 123.87079 32039 ft 371 kts 154°
2026-04-24 00:20 7.87287 123.88168 31811 ft 369 kts 154°
2026-04-24 00:20 7.85001 123.89232 31612 ft 367 kts 154°
2026-04-24 00:21 7.82683 123.90309 31392 ft 365 kts 154°
2026-04-24 00:21 7.80385 123.91377 31150 ft 364 kts 154°
2026-04-24 00:21 7.78082 123.92448 30930 ft 363 kts 154°
2026-04-24 00:21 7.75793 123.93513 30714 ft 361 kts 154°
2026-04-24 00:22 7.73517 123.94571 30498 ft 360 kts 154°
2026-04-24 00:22 7.71247 123.95626 30294 ft 358 kts 154°
2026-04-24 00:22 7.68988 123.96676 30073 ft 357 kts 154°
2026-04-24 00:22 7.66742 123.97720 29830 ft 355 kts 154°
2026-04-24 00:23 7.64501 123.98761 29601 ft 353 kts 154°
2026-04-24 00:23 7.62304 123.99782 29377 ft 351 kts 154°
2026-04-24 00:23 7.60092 124.00809 29160 ft 350 kts 154°
2026-04-24 00:23 7.57889 124.01832 28917 ft 348 kts 154°
2026-04-24 00:24 7.55691 124.02853 28712 ft 347 kts 154°
2026-04-24 00:24 7.53508 124.03866 28500 ft 344 kts 154°
2026-04-24 00:24 7.51338 124.04874 28311 ft 342 kts 154°
2026-04-24 00:24 7.49184 124.05874 28099 ft 340 kts 154°
2026-04-24 00:25 7.47036 124.06871 27866 ft 339 kts 154°
2026-04-24 00:25 7.44926 124.07851 27659 ft 338 kts 154°
2026-04-24 00:25 7.42798 124.08838 27475 ft 336 kts 154°
2026-04-24 00:25 7.40684 124.09819 27281 ft 334 kts 154°
2026-04-24 00:26 7.38579 124.10797 27067 ft 333 kts 153°
2026-04-24 00:26 7.36481 124.11770 26859 ft 332 kts 153°
2026-04-24 00:26 7.34387 124.12741 26658 ft 330 kts 153°
2026-04-24 00:26 7.32303 124.13708 26458 ft 329 kts 153°
2026-04-24 00:27 7.30224 124.14673 26259 ft 328 kts 153°
2026-04-24 00:27 7.28155 124.15633 26062 ft 327 kts 153°
2026-04-24 00:27 7.26094 124.16589 25854 ft 326 kts 153°
2026-04-24 00:27 7.24067 124.17529 25676 ft 325 kts 153°
2026-04-24 00:28 7.22016 124.18480 25488 ft 324 kts 153°
2026-04-24 00:28 7.19972 124.19428 25294 ft 323 kts 153°
2026-04-24 00:28 7.17942 124.20383 25107 ft 321 kts 150°
2026-04-24 00:28 7.16657 124.21119 24981 ft 320 kts 145°
2026-04-24 00:29 7.14860 124.22419 24804 ft 317 kts 140°
2026-04-24 00:29 7.12586 124.24256 24557 ft 316 kts 139°
2026-04-24 00:29 7.10879 124.25653 24370 ft 316 kts 139°
2026-04-24 00:29 7.09172 124.27049 24165 ft 316 kts 139°
2026-04-24 00:30 7.07459 124.28447 23948 ft 317 kts 139°
2026-04-24 00:30 7.05750 124.29839 23761 ft 317 kts 139°
2026-04-24 00:30 7.04088 124.31190 23578 ft 317 kts 139°
2026-04-24 00:30 7.02361 124.32593 23342 ft 317 kts 139°
2026-04-24 00:31 7.00642 124.33987 23103 ft 318 kts 139°
2026-04-24 00:31 6.98943 124.35364 22869 ft 318 kts 139°
2026-04-24 00:31 6.97241 124.36743 22646 ft 318 kts 139°
2026-04-24 00:31 6.95518 124.38138 22425 ft 318 kts 139°
2026-04-24 00:32 6.93791 124.39536 22185 ft 318 kts 139°
2026-04-24 00:32 6.92067 124.40933 21933 ft 318 kts 139°
2026-04-24 00:32 6.90362 124.42313 21642 ft 319 kts 139°
2026-04-24 00:32 6.88633 124.43713 21331 ft 320 kts 139°
2026-04-24 00:33 6.86899 124.45117 21013 ft 321 kts 139°
2026-04-24 00:33 6.85161 124.46523 20727 ft 321 kts 139°
2026-04-24 00:33 6.83421 124.47932 20431 ft 321 kts 139°
2026-04-24 00:33 6.81682 124.49339 20141 ft 321 kts 139°
2026-04-24 00:34 6.79939 124.50750 19858 ft 322 kts 140°
2026-04-24 00:34 6.78194 124.52162 19566 ft 322 kts 140°
2026-04-24 00:34 6.76471 124.53556 19278 ft 322 kts 140°
2026-04-24 00:34 6.74720 124.54972 19013 ft 323 kts 140°
2026-04-24 00:35 6.72972 124.56387 18733 ft 323 kts 140°
2026-04-24 00:35 6.71219 124.57806 18464 ft 323 kts 140°
2026-04-24 00:35 6.69463 124.59225 18172 ft 324 kts 140°
2026-04-24 00:35 6.67706 124.60646 17830 ft 325 kts 140°
2026-04-24 00:36 6.65933 124.62060 17522 ft 325 kts 141°
2026-04-24 00:36 6.64130 124.63436 17199 ft 325 kts 141°
2026-04-24 00:36 6.62317 124.64801 16880 ft 327 kts 142°
2026-04-24 00:36 6.60495 124.66171 16573 ft 327 kts 141°
2026-04-24 00:37 6.58697 124.67526 16282 ft 327 kts 141°
2026-04-24 00:37 6.56876 124.68901 15977 ft 328 kts 141°
2026-04-24 00:37 6.55051 124.70281 15659 ft 329 kts 141°
2026-04-24 00:37 6.53217 124.71668 15339 ft 330 kts 141°
2026-04-24 00:38 6.51382 124.73059 15038 ft 330 kts 141°
2026-04-24 00:38 6.49546 124.74450 14750 ft 331 kts 141°
2026-04-24 00:38 6.47709 124.75843 14437 ft 331 kts 141°
2026-04-24 00:38 6.45865 124.77240 14133 ft 332 kts 141°
2026-04-24 00:39 6.44046 124.78618 13837 ft 333 kts 141°
2026-04-24 00:39 6.42195 124.80020 13518 ft 333 kts 141°
2026-04-24 00:39 6.40346 124.81419 13198 ft 333 kts 141°
2026-04-24 00:39 6.38544 124.82857 12846 ft 328 kts 134°
2026-04-24 00:40 6.37129 124.84668 12343 ft 331 kts 121°
2026-04-24 00:40 6.35876 124.86609 12030 ft 331 kts 122°
2026-04-24 00:40 6.34596 124.88527 11766 ft 330 kts 123°
2026-04-24 00:40 6.33294 124.90423 11483 ft 329 kts 123°
2026-04-24 00:41 6.32000 124.92286 11148 ft 330 kts 123°
2026-04-24 00:41 6.30664 124.94200 10826 ft 330 kts 124°
2026-04-24 00:41 6.29269 124.95998 10523 ft 331 kts 128°
2026-04-24 00:41 6.27777 124.97759 10247 ft 330 kts 129°
2026-04-24 00:42 6.26789 124.98907 10209 ft 326 kts 129°
2026-04-24 00:42 6.22217 125.04266 10113 ft 311 kts 128°
2026-04-24 00:43 6.20844 125.05891 10043 ft 299 kts 128°
2026-04-24 00:43 6.19524 125.07459 9951 ft 288 kts 128°
2026-04-24 00:43 6.18252 125.08972 9828 ft 279 kts 128°
2026-04-24 00:43 6.17031 125.10425 9650 ft 274 kts 128°
2026-04-24 00:44 6.15804 125.11885 9388 ft 271 kts 128°
2026-04-24 00:44 6.14597 125.13322 9141 ft 268 kts 128°
2026-04-24 00:44 6.13396 125.14753 8827 ft 268 kts 128°
2026-04-24 00:44 6.12199 125.16177 8509 ft 267 kts 128°
2026-04-24 00:45 6.10980 125.17570 8207 ft 263 kts 136°
2026-04-24 00:45 6.09381 125.18443 7893 ft 266 kts 163°
2026-04-24 00:45 6.07568 125.18715 7621 ft 264 kts 171°
2026-04-24 00:45 6.05730 125.18928 7323 ft 268 kts 171°
2026-04-24 00:46 6.03873 125.19147 7009 ft 275 kts 171°
2026-04-24 00:46 6.01961 125.19374 6668 ft 277 kts 171°
2026-04-24 00:46 6.00046 125.19603 6344 ft 278 kts 171°
2026-04-24 00:46 5.98128 125.19835 6007 ft 278 kts 170°
2026-04-24 00:47 5.96209 125.20068 5670 ft 278 kts 171°
2026-04-24 00:47 5.94287 125.20303 5343 ft 278 kts 170°
2026-04-24 00:47 5.92366 125.20536 5025 ft 276 kts 172°
2026-04-24 00:47 5.90483 125.20368 4700 ft 276 kts 198°
2026-04-24 00:48 5.88901 125.19291 4403 ft 276 kts 229°
2026-04-24 00:48 5.88007 125.17692 4309 ft 266 kts 252°
2026-04-24 00:48 5.87680 125.15924 4203 ft 249 kts 263°
2026-04-24 00:48 5.87601 125.14235 4055 ft 241 kts 281°
2026-04-24 00:49 5.88267 125.12745 3952 ft 227 kts 313°
2026-04-24 00:49 5.89464 125.11823 3734 ft 212 kts 336°
2026-04-24 00:49 5.90826 125.11409 3514 ft 196 kts 353°
2026-04-24 00:49 5.92128 125.11244 3238 ft 183 kts 356°
2026-04-24 00:50 5.93322 125.11107 2982 ft 161 kts 355°
2026-04-24 00:50 5.94364 125.10984 2729 ft 141 kts 355°
2026-04-24 00:50 5.95292 125.10877 2527 ft 132 kts 356°
2026-04-24 00:50 5.96217 125.10773 2377 ft 136 kts 355°
2026-04-24 00:51 5.97174 125.10661 2217 ft 141 kts 355°
2026-04-24 00:51 5.98126 125.10555 1953 ft 134 kts 354°
2026-04-24 00:51 5.99071 125.10437 1793 ft 150 kts 354°
2026-04-24 00:51 6.00194 125.10301 1570 ft 162 kts 354°
2026-04-24 00:52 6.01259 125.10171 1201 ft 149 kts 354°
2026-04-24 00:52 6.02245 125.10063 846 ft 133 kts 354°
2026-04-24 00:52 6.03138 125.09952 764 ft 131 kts 353°
2026-04-24 00:52 6.04070 125.09831 587 ft 138 kts 354°
2026-04-24 00:53 6.04989 125.09717 481 ft 123 kts 353°
2026-04-24 00:53 6.05717 125.09632 481 ft 88 kts 351°
2026-04-24 00:53 6.06199 125.09568 482 ft 52 kts 354°
2026-04-24 00:53 6.06510 125.09529 480 ft 54 kts 352°
2026-04-24 00:54 6.06925 125.09479 477 ft 57 kts 354°
2026-04-24 00:54 6.07134 125.09518 479 ft 18 kts 76°
2026-04-24 00:54 6.07194 125.09615 480 ft 18 kts
2026-04-24 00:54 6.07251 125.09527 483 ft 19 kts 265°
2026-04-24 00:55 6.07197 125.09452 480 ft 13 kts 180°
2026-04-24 00:55 6.07103 125.09461 482 ft 17 kts 175°
2026-04-24 00:55 6.06960 125.09477 476 ft 22 kts 173°
2026-04-24 00:55 6.06804 125.09495 483 ft 25 kts 173°
2026-04-24 00:56 6.06575 125.09529 481 ft 42 kts 169°
2026-04-24 00:56 6.06244 125.09564 482 ft 49 kts 174°
2026-04-24 00:56 6.05912 125.09602 483 ft 39 kts 171°
2026-04-24 00:56 6.05827 125.09721 480 ft 19 kts 82°
2026-04-24 00:57 6.05805 125.09867 479 ft 27 kts 141°
2026-04-24 00:57 6.05733 125.09947 479 ft 0 kts 129°